Regional Weather Roundup
Issued by NWS Jackson, KY

Home | Current Version | Previous Version | Graphics & Text | Print | Product List | Glossary On
Versions: 1 2 3 4 5 6 7 8 9 10 11 12 13 14 15 16 17 18 19 20 21 22 23 24 25 26 27 28 29 30 31 32 33 34 35 36 37 38 39 40 41 42 43 44 45 46 47 48 49 50
000
ASUS43 KJKL 201619
RWRJKL

EAST KENTUCKY HOURLY WEATHER ROUNDUP
NATIONAL WEATHER SERVICE JACKSON KY
1100 AM EST SAT DEC 20 2014

NOTE: "FAIR" INDICATES FEW OR NO CLOUDS BELOW 12,000 FEET WITH
NO SIGNIFICANT WEATHER AND/OR OBSTRUCTIONS TO VISIBILITY.

* THESE REPORTS ARE NOT UNDER NWS QUALITY CONTROL AND MAY NOT
  REPORT WEATHER SUCH AS PRECIPITATION AND FOG.

KYZ079-080-083-085-087-088-110-112-115-119-120-201700
...EASTERN KENTUCKY...

CITY           SKY/WX    TMP DP  RH WIND       PRES   REMARKS
JACKSON        CLOUDY    31  23  72 CALM      30.24S
LONDON         CLOUDY    34  25  69 CALM      30.24F
SOMERSET*      CLOUDY    32  27  80 NW3       30.30R
MONTICELLO*    CLOUDY    35  27  73 CALM      30.30R
MIDDLESBORO*   CLOUDY    37  32  82 CALM      30.24F
HARLAN APT*    CLOUDY    36  30  80 CALM      30.21F
HAZARD APT*    CLOUDY    34  27  75 CALM      30.24S
BLACK MTN*       N/A     32  30  93 SW2         N/A
PIKEVILLE APT* CLOUDY    30  27  86 CALM      30.23S
BIG SANDY*     CLOUDY    31  25  80 CALM      30.25S
MOREHEAD APT*  CLOUDY    30  25  80 CALM      30.28F
ASHLAND*       CLOUDY    34  19  55 CALM      30.27S
$$

KYZ035-036-041-042-044-050-067-078-099-201700
...CENTRAL KENTUCKY...

CITY           SKY/WX    TMP DP  RH WIND       PRES   REMARKS
MT STERLING*   CLOUDY    32  27  80 CALM      30.28S
FLEMING/MASON* LGT SNOW  28  25  86 NE3       30.29S
DANVILLE*      CLOUDY    32  27  80 CALM      30.29R
RICHMOND*      CLOUDY    32  25  74 CALM      30.27S
LEXINGTON      CLOUDY    31  24  75 CALM      30.28R
FRANKFORT      CLOUDY    32  25  75 VRB3      30.28S
$$

KYZ091>093-OHZ055-061-077-WVZ005-015-034-035-042-201700
...SOUTHERN OHIO/WEST VIRGINIA...

CITY           SKY/WX    TMP DP  RH WIND       PRES   REMARKS
COVINGTON      CLOUDY    31  24  75 CALM      30.29R
COLUMBUS       CLOUDY    30  22  72 CALM      30.28F
DAYTON         CLOUDY    31  22  69 CALM      30.30R
WILMINGTON     CLOUDY    29  23  78 E3        30.27F
HUNTINGTON     CLOUDY    32  24  72 VRB3      30.27S
CHARLESTON     CLOUDY    31  23  72 CALM      30.26S
PINEVILLE*     CLOUDY    35  32  88 MISG      30.25F
BECKLEY        CLOUDY    32  25  75 CALM      30.16F
BLUEFIELD      CLOUDY    32  26  78 E3        30.16F
$$

VAZ002-007-008-TNZ017-027-036-066-071-201700
...SOUTHWEST VIRGINIA/EAST TENNESSEE...

CITY           SKY/WX    TMP DP  RH WIND       PRES   REMARKS
WISE*          CLOUDY    32  32 100 CALM      30.18R
JONESVILLE*    MOSUNNY   37  32  81 CALM      30.24S
ABINGDON*      CLOUDY    38  35  87 E6        30.19S WCI  34
BRISTOL        CLOUDY    39  35  86 CALM      30.21S
KNOXVILLE      CLOUDY    40  31  70 NE3       30.23S
OAK RIDGE      CLOUDY    43  32  65 CALM      30.26R
CROSSVILLE     CLOUDY    39  30  70 CALM      30.21S
NASHVILLE      MOSUNNY   39  28  64 NE5       30.30R
$$

...KEY TO REMARKS...
VSB - VISIBILITY IN MILES
WCI - WIND CHILL INDEX
HX  - HEAT INDEX

$$



USA.gov is the U.S. government's official web portal to all federal, state and local government web resources and services.